Regional Weather Roundup
Issued by NWS

Home | Current Version | Previous Version | Text Only | Print | Product List | Glossary On
Versions: 1 2 3 4 5 6 7 8 9 10 11 12 13 14 15 16 17 18 19 20 21 22 23 24 25 26 27 28 29 30 31 32 33 34 35 36 37 38 39 40 41 42 43 44 45 46 47 48 49 50
000
ASUS43 KIND 231509
RWRIN

WEATHER ROUNDUP FOR INDIANA
NATIONAL WEATHER SERVICE INDIANAPOLIS IN
1100 AM EDT THU MAR 23 2017

NOTE: "FAIR" INDICATES FEW OR NO CLOUDS BELOW 12,000 FEET WITH NO
SIGNIFICANT WEATHER AND/OR OBSTRUCTIONS TO VISIBILITY.

* - STATION DOES NOT REPORT WEATHER SUCH AS PRECIPITATION OR FOG.

+ - STATION NOT QUALITY CONTROLLED BY THE NATIONAL WEATHER SERVICE.
    USE DATA WITH CAUTION...ESPECIALLY DEWPOINT AND RELATIVE
    HUMIDITY OBSERVATIONS.

INZ001>003-010>013-019-020-231600-
NORTHWEST INDIANA

CITY           SKY/WX    TMP DP  RH WIND       PRES   REMARKS
GARY /AIRPORT/ CLOUDY    34  16  47 SE9       30.42S WCI  26
KNOX *+        CLOUDY    32  -4  21 SE13      30.43S WCI  22
LA PORTE +     CLOUDY    32  16  50 SE10      30.43S WCI  24
MICHIGAN CITY+ CLOUDY    32  14  47 SE9       30.43S WCI  24
MONTICELLO +   CLOUDY    33  21  61 SE7       30.42S WCI  27
RENSSELAER +   CLOUDY    34  23  64 SE10      30.42S WCI  26
VALPARAISO     CLOUDY    34  17  50 SE13      30.42S WCI  25

$$

LMZ046-743>745-231600-
SOUTHERN LAKE MICHIGAN

STATION/POSITION TIME  TEMP    WIND        PRES    WAVE
                       AIR SEA DIR/SP/G            HT
                 (UTC) (F)     (DEG/KT/KT) (MB)    (FT)
BURNS HARBOR     1440   33     130/  7/ 13 1030.1S
MICHIGAN CITY    1440   32     120/ 11/ 16   N/A

$$

INZ004-005-014>016-021>024-231600-
NORTH CENTRAL INDIANA

CITY           SKY/WX    TMP DP  RH WIND       PRES   REMARKS
ELKHART        CLOUDY    32   9  37 SE12      30.45S WCI  23
GOSHEN         CLOUDY    32  10  40 SE15      30.45F WCI  22
LOGANSPORT +   CLOUDY    32  23  69 SE14      30.44S WCI  22
PERU/GRISSOM   CLOUDY    33  21  61 E16       30.41F WCI  22
ROCHESTER +    SUNNY     34  19  55 SE12      30.44F WCI  25
SOUTH BEND     CLOUDY    31  10  41 SE14      30.44F WCI  21
WARSAW +       CLOUDY    32  18  55 SE9       30.45F WCI  24

$$

INZ006>009-017-018-025>027-231600-
NORTHEAST INDIANA

CITY           SKY/WX    TMP DP  RH WIND       PRES   REMARKS
ANGOLA *+      MOSUNNY   30  12  47 SE18      30.46F WCI  18
AUBURN +       SUNNY     32  18  55 E10       30.48F WCI  24
FORT WAYNE     PTSUNNY   34  19  54 SE14      30.47F WCI  25
HUNTINGTON +   CLOUDY    33  19  55 E12       30.46F WCI  24
KENDALLVILLE + CLOUDY    32  15  49 SE13      30.46F WCI  22

$$

INZ028-029-035-036-043>045-051>053-231600-
WEST CENTRAL INDIANA

CITY           SKY/WX    TMP DP  RH WIND       PRES   REMARKS
CRAWFORDSVL +  CLOUDY    37  22  54 SE12      30.41R
GREENCASTLE +  PTSUNNY   37  21  52 SE10      30.41R
LAFAYETTE      CLOUDY    36  23  59 SE8       30.42S
TERRE HAUTE    MOSUNNY   39  22  50 SE7       30.40S

$$

INZ030>032-037>040-046>048-054>057-064-065-231600-
CENTRAL INDIANA

CITY           SKY/WX    TMP DP  RH WIND       PRES   REMARKS
ANDERSON       CLOUDY    36  19  51 E10       30.44F
CP ATTERBURY + SUNNY     39  21  48 SE13      30.43S
COLUMBUS       CLOUDY    37  19  48 E12       30.43F
FISHERS *+     CLOUDY    36  23  60 SE8       30.42
FRANKFORT +    CLOUDY    37  24  59 SE15      30.42F
GREENWOOD *+   MOSUNNY   38  22  52 SE12      30.42F
INDIANAPOLIS   MOSUNNY   38  19  46 E16       30.41F
-EAGLE CREEK   MOSUNNY   39  18  42 E15       30.40F
KOKOMO +       CLOUDY    33  23  66 SE13      30.44F WCI  24
MARION +       CLOUDY    33  20  58 SE14      30.44F HAZE    WCI  23
MT COMFORT *+  PTSUNNY   36  21  55 SE13      30.43F
SHELBYVILLE    PTSUNNY   39  19  44 E13       30.41F
ZIONSVILLE +   CLOUDY    34  20  57 E13       30.42F WCI  25

$$

INZ033-034-041-042-049-050-058-059-231600-
EAST CENTRAL INDIANA

CITY           SKY/WX    TMP DP  RH WIND       PRES   REMARKS
MUNCIE         MOSUNNY   37  20  50 SE12      30.44F
RICHMOND +     SUNNY     32  21  64 SE13      30.45F WCI  22

$$

INZ060-061-067>069-081>083-085>088-231600-
SOUTHWEST INDIANA

CITY           SKY/WX    TMP DP  RH WIND       PRES   REMARKS
EVANSVILLE     LGT RAIN  41  24  51 SE3       30.40R
HUNTINGBURG *+ CLOUDY    42  21  43 SE5       30.40R
WASHINGTON +   CLOUDY    39  20  46 MISG      30.41R

$$

INZ062-063-066-070>080-084-089>092-231600-
SOUTH CENTRAL AND SOUTHEAST INDIANA

CITY           SKY/WX    TMP DP  RH WIND       PRES   REMARKS
BEDFORD +      PTSUNNY   39  18  41 E10       30.39F
BLOOMINGTON    CLOUDY    39  18  42 SE9       30.40R
MADISON *+     MOSUNNY   39  18  41 E7        30.44R
NORTH VERNON + SUNNY     39  14  35 E9        30.43S
SEYMOUR +      MOSUNNY   43  21  42 E9        30.41F

$$





USA.gov is the U.S. government's official web portal to all federal, state and local government web resources and services.